Vertical_Velocity
-1 -1 1 -2 -0 -1 -2 -2 1 -2 -2 -1 0 1 -1 1 1 0 0 -2 2 -1
-0 -1 -0 2 -0 -1 -1 -1 -1 -0 1 -2 -1 1 -0 1 -1 0 -1 1 2 1
1 -1 2 1 -1 -1 -1 -0 -0 1 -0 -2 1 1 1 2 1 -1 1 1 1 2
0 1 -1 -2 2 1 0 -2 1 -1 -1 -4 1 1 1 0 -1 -2 -1 2 -0 1
-1 -0 -0 0 1 2 -2 -0 -0 0 1 -4 2 3 0 -0 -1 -2 -1 0 -1 2
-1 -2 -1 1 1 1 -1 -0 -1 -0 1 -4 2 0 -1 -1 -2 -0 2 1 1 -0
-1 -1 -0 -1 -1 -0 -2 -0 -1 -1 2 -2 2 1 -2 -1 -1 1 2 2 2 -0
1 -1 -1 4 1 -1 1 -2 -1 1 2 -0 1 -1 -2 1 -1 -1 0 2 1 -1
1 -4 2 -1 0 -3 -0 -0 -2 2 -0 -2 -0 -0 -2 3 -0 1 1 -1 -1 0
1 -3 6 -7 2 -2 -4 -2 0 0 -1 -1 0 1 0 2 2 1 0 0 -1 -1
-1 0 1 -5 -2 -1 -2 -4 -1 -0 -1 1 -0 1 2 -0 -0 1 1 0 1 -0
2 -1 -3 -3 -2 -1 -2 -1 0 -3 -1 1 1 1 0 -1 -1 -1 -1 0 1 2
1 -2 -3 -4 -2 -2 -3 0 2 0 1 1 2 -1 1 -1 -1 -1 -0 3 0 0
-2 -3 -4 -4 -1 -0 -2 4 4 1 0 3 -0 -1 3 2 -2 -3 -3 -2 -4 -0
Height
1542 1540 1537 1534 1531 1528 1525 1522 1518 1515 1511 1508 1504 1499 1494 1488 1483 1480 1477 1475 1473 1470
1542 1540 1537 1533 1530 1527 1525 1522 1519 1516 1511 1507 1503 1497 1491 1486 1481 1478 1475 1473 1471 1468
1543 1540 1537 1534 1530 1527 1524 1521 1518 1515 1511 1506 1502 1495 1489 1484 1480 1476 1473 1470 1468 1465
1544 1540 1537 1534 1530 1527 1524 1521 1517 1513 1509 1505 1500 1494 1488 1482 1477 1474 1471 1468 1465 1462
1544 1541 1538 1534 1530 1526 1523 1520 1516 1512 1507 1503 1498 1492 1485 1480 1475 1471 1468 1465 1461 1458
1544 1542 1538 1535 1531 1527 1523 1519 1515 1511 1505 1500 1496 1489 1483 1479 1474 1470 1466 1462 1459 1455
1544 1541 1539 1534 1531 1527 1522 1519 1514 1510 1504 1499 1494 1487 1482 1478 1472 1468 1464 1460 1456 1452
1544 1542 1540 1535 1530 1526 1522 1518 1513 1508 1503 1497 1492 1486 1482 1477 1471 1466 1461 1457 1453 1449
1547 1542 1540 1535 1530 1527 1522 1517 1512 1507 1502 1496 1491 1486 1482 1477 1470 1464 1459 1454 1450 1447
1547 1544 1540 1537 1532 1527 1522 1517 1512 1507 1502 1497 1491 1486 1481 1476 1470 1464 1458 1453 1449 1445
1547 1544 1541 1538 1534 1529 1523 1518 1513 1507 1502 1497 1491 1486 1481 1475 1469 1464 1458 1453 1448 1444
1548 1545 1543 1540 1536 1530 1525 1520 1514 1508 1503 1497 1492 1486 1480 1474 1468 1463 1458 1453 1448 1444
1549 1547 1545 1542 1538 1533 1528 1523 1517 1511 1505 1499 1493 1486 1481 1475 1468 1464 1458 1453 1448 1444
1552 1549 1547 1544 1540 1536 1531 1526 1521 1514 1507 1501 1494 1488 1482 1476 1470 1465 1459 1454 1448 1443